Houston, TX

1:10 AM CDT on July 25, 2017 (GMT -0500)
Hobby

Weather History for KHOU - October, 2013

Change the Weather History Date:

Monday, October 28, 2013

  Actual Average Record
Temperature  
Mean Temperature 73 °F 68 °F  
Max Temperature 83 °F 79 °F 90 °F (1991)
Min Temperature 62 °F 58 °F 36 °F (1898)
Degree Days  
Heating Degree Days 0 2  
Month to date heating degree days 8 21  
Since 1 July heating degree days 8 22  
Cooling Degree Days 8 5  
Month to date cooling degree days 189 213  
Year to date cooling degree days 3110 3038  
Growing Degree Days 22 (Base 50)    
Moisture  
Dew Point 66 °F    
Average Humidity 83    
Maximum Humidity 100    
Minimum Humidity 65    
Precipitation  
Precipitation 0.00 in 0.18 in 8.04 in (2002)
Month to date precipitation 4.36 5.19  
Year to date precipitation 30.65 41.18  
Sea Level Pressure  
Sea Level Pressure 30.08 in    
Wind  
Wind Speed 3 mph (SE)    
Max Wind Speed 18 mph    
Max Gust Speed 20 mph    
Visibility 10 miles    
Events      
T = Trace of Precipitation, MM = Missing Value Source: NWS Daily Summary

Daily Weather History Graph

Daily Weather History Graph

Search for Another Location

Airport or City:

Trip Planner

Search our weather history database for the weather conditions in past years. The results will help you decide how hot, cold, wet, or windy it might be!

Date:

Astronomy

Oct. 28, 2013 Rise Set
Actual Time 7:31 AM CDT 6:37 PM CDT
Civil Twilight 7:07 AM CDT 7:02 PM CDT
Nautical Twilight 6:39 AM CDT 7:30 PM CDT
Astronomical Twilight 6:11 AM CDT 7:57 PM CDT
Moon 1:51 AM CDT (10/28) 2:56 PM CDT (10/28)
Length of Visible Light 11h 54m
Length of Day
11h 05m
Waning Crescent, 34% of the Moon is Illuminated
Oct 28
Waning Crescent
Nov 3
New
Nov 9
First Quarter
Nov 17
Full
Nov 25
Last Quarter

Hourly Weather History & Observations

Time (CDT) Temp. Heat Index Dew Point Humidity Pressure Visibility Wind Dir Wind Speed Gust Speed Precip Events Conditions
12:53 AM 63.0 °F - 61.0 °F 93% 30.06 in 10.0 mi Calm Calm - N/A   Partly Cloudy
1:53 AM 63.0 °F - 61.0 °F 93% 30.04 in 10.0 mi Calm Calm - N/A   Scattered Clouds
2:53 AM 64.0 °F - 62.1 °F 93% 30.04 in 10.0 mi Calm Calm - N/A   Mostly Cloudy
3:53 AM 64.0 °F - 62.1 °F 93% 30.04 in 10.0 mi Calm Calm - N/A   Clear
4:53 AM 64.0 °F - 62.1 °F 93% 30.05 in 10.0 mi Calm Calm - N/A   Scattered Clouds
5:53 AM 64.9 °F - 63.0 °F 93% 30.06 in 10.0 mi Calm Calm - N/A   Mostly Cloudy
6:53 AM 64.9 °F - 63.0 °F 93% 30.06 in 8.0 mi Calm Calm - N/A   Mostly Cloudy
7:53 AM 64.9 °F - 63.0 °F 93% 30.08 in 10.0 mi ENE 3.5 mph - N/A   Scattered Clouds
8:53 AM 68.0 °F - 64.9 °F 90% 30.11 in 10.0 mi East 4.6 mph - N/A   Scattered Clouds
9:53 AM 73.0 °F - 66.9 °F 81% 30.13 in 10.0 mi ESE 8.1 mph - N/A   Scattered Clouds
10:53 AM 75.9 °F - 68.0 °F 76% 30.14 in 10.0 mi East 6.9 mph - N/A   Scattered Clouds
11:53 AM 78.1 °F - 70.0 °F 76% 30.13 in 10.0 mi ESE 9.2 mph - N/A   Scattered Clouds
12:53 PM 80.1 °F 83.2 °F 70.0 °F 71% 30.11 in 10.0 mi SE 6.9 mph - N/A   Scattered Clouds
1:53 PM 81.0 °F 84.4 °F 70.0 °F 69% 30.08 in 10.0 mi ESE 10.4 mph - N/A   Mostly Cloudy
2:53 PM 81.0 °F 84.9 °F 71.1 °F 72% 30.06 in 10.0 mi ESE 9.2 mph - N/A   Scattered Clouds
3:53 PM 81.0 °F 83.8 °F 68.0 °F 65% 30.05 in 10.0 mi SSE 11.5 mph - N/A   Mostly Cloudy
4:53 PM 79.0 °F - 66.9 °F 66% 30.06 in 10.0 mi SSE 13.8 mph 19.6 mph N/A   Scattered Clouds
5:53 PM 78.1 °F - 66.9 °F 68% 30.06 in 10.0 mi SSE 9.2 mph - N/A   Mostly Cloudy
6:53 PM 75.9 °F - 68.0 °F 76% 30.07 in 10.0 mi SSE 8.1 mph - N/A   Scattered Clouds
7:53 PM 73.9 °F - 68.0 °F 82% 30.08 in 10.0 mi SE 4.6 mph - N/A   Scattered Clouds
8:53 PM 73.0 °F - 68.0 °F 84% 30.10 in 10.0 mi SE 5.8 mph - N/A   Scattered Clouds
9:53 PM 73.0 °F - 68.0 °F 84% 30.11 in 10.0 mi SE 4.6 mph - N/A   Mostly Cloudy
10:53 PM 72.0 °F - 68.0 °F 87% 30.12 in 10.0 mi SE 5.8 mph - N/A   Scattered Clouds
11:53 PM 72.0 °F - 68.0 °F 87% 30.12 in 10.0 mi SE 4.6 mph - N/A   Partly Cloudy